Shelton, WA
on Tuesday, January 29, 2013

Tuesday
Previous Day Next Day
Daily Summary
 ActualAverage (KOLM)Record (KOLM)
Temperature
Mean Temperature °F 40°F  
Max Temperature 50°F 47°F 57°F (1960)
Min Temperature 43°F 34°F 0°F (1972)
Degree Days
Heating Degree Days 18 25  
Month to date heating degree days 735  
Since 1 July heating degree days 3005  
Cooling Degree Days 0 0  
Month to date cooling degree days 0  
Year to date cooling degree days 0  
Moisture
Dew Point 43°F   
Average Humidity 89    
Maximum Humidity 97    
Minimum Humidity 80    
Precipitation
Precipitation 0.03 in 0.23 in 2.23 in (2006)
Month to date precipitation 7.37  
Year to date precipitation 7.37  
Wind
Wind Speed 15 mph   
Max Wind Speed 20 mph   
Max Gust Speed 28 mph   
Visibility 10 miles   
Events Rain   

Key: T is trace of precipitation, MM is missing value
Source: NWS Daily Summary
Time(PST)TemperatureDew PointHumidity Pressure Visibility Wind DirectionWind SpeedGust SpeedPrecipitationEvents Conditions
12:53 AM 43.0°F 39.9°F 89% 30.09 in 10.0 miles WSW 18.4 mph 27.6 mph N/A   Overcast
1:53 AM 44.1°F 41.0°F 89% 30.10 in 10.0 miles SW 16.1 mph - N/A   Overcast
2:53 AM 44.1°F 42.1°F 93% 30.12 in 10.0 miles SW 16.1 mph - N/A   Overcast
3:53 AM 44.1°F 42.1°F 93% 30.13 in 10.0 miles SW 17.3 mph 23.0 mph N/A   Mostly Cloudy
4:53 AM 45.0°F 42.1°F 90% 30.14 in 10.0 miles WSW 18.4 mph 26.5 mph N/A   Mostly Cloudy
5:53 AM 45.0°F 42.1°F 90% 30.15 in 10.0 miles WSW 17.3 mph 26.5 mph N/A   Scattered Clouds
6:53 AM 45.0°F 42.1°F 90% 30.17 in 10.0 miles WSW 11.5 mph - N/A   Mostly Cloudy
7:10 AM 44.6°F 42.8°F 93% 30.17 in 10.0 miles WSW 8.1 mph - N/A   Mostly Cloudy
7:53 AM 45.0°F 42.1°F 90% 30.21 in 10.0 miles West 8.1 mph 19.6 mph N/A   Overcast
8:53 AM 44.1°F 41.0°F 89% 30.24 in 10.0 miles Calm Calm - N/A   Overcast
9:53 AM 46.0°F 43.0°F 89% 30.26 in 10.0 miles West 6.9 mph - N/A   Overcast
10:53 AM 46.9°F 43.0°F 86% 30.28 in 10.0 miles WSW 10.4 mph - N/A   Overcast
11:53 AM 48.0°F 44.1°F 86% 30.29 in 10.0 miles WSW 12.7 mph - N/A   Overcast
12:28 PM 48.2°F 44.6°F 87% 30.27 in 10.0 miles WSW 12.7 mph 20.7 mph N/A   Mostly Cloudy
12:53 PM 48.9°F 43.0°F 80% 30.29 in 10.0 miles WSW 15.0 mph 23.0 mph N/A   Overcast
1:53 PM 50.0°F 44.1°F 80% 30.29 in 10.0 miles WSW 16.1 mph 21.9 mph N/A   Mostly Cloudy
2:32 PM 48.2°F 42.8°F 82% 30.29 in 10.0 miles WSW 16.1 mph 24.2 mph N/A   Mostly Cloudy
2:53 PM 48.9°F 43.0°F 80% 30.30 in 10.0 miles SW 17.3 mph 24.2 mph N/A   Overcast
3:18 PM 48.2°F 42.8°F 82% 30.29 in 10.0 miles SW 16.1 mph 25.3 mph N/A   Mostly Cloudy
3:29 PM 48.2°F 42.8°F 82% 30.29 in 10.0 miles WSW 19.6 mph 26.5 mph N/A   Mostly Cloudy
3:53 PM 48.9°F 43.0°F 80% 30.32 in 10.0 miles WSW 19.6 mph 27.6 mph N/A   Mostly Cloudy
4:36 PM 46.4°F 42.8°F 87% 30.31 in 10.0 miles SW 19.6 mph 27.6 mph N/A   Mostly Cloudy
4:53 PM 46.9°F 43.0°F 86% 30.32 in 10.0 miles SW 17.3 mph 23.0 mph N/A   Mostly Cloudy
5:53 PM 46.0°F 43.0°F 89% 30.34 in 10.0 miles WSW 16.1 mph 24.2 mph N/A   Overcast
6:53 PM 45.0°F 43.0°F 93% 30.35 in 10.0 miles WSW 13.8 mph 25.3 mph N/A   Overcast
7:53 PM 44.1°F 43.0°F 96% 30.35 in 10.0 miles SW 19.6 mph 26.5 mph 0.00 in Rain Light Rain
8:53 PM 44.1°F 42.1°F 93% 30.35 in 10.0 miles SW 13.8 mph - N/A   Overcast
9:11 PM 44.6°F 42.8°F 93% 30.32 in 10.0 miles SW 15.0 mph - 0.00 in   Overcast
9:53 PM 44.1°F 43.0°F 96% 30.34 in 10.0 miles SW 4.6 mph - 0.00 in   Overcast
10:53 PM 44.1°F 43.0°F 96% 30.32 in 10.0 miles SW 8.1 mph - 0.02 in Rain Light Rain
11:53 PM 45.0°F 44.1°F 97% 30.32 in 10.0 miles SW 9.2 mph - 0.01 in   Overcast
Moon Phase
Jan. 29 Feb. 03 Feb. 10 Feb. 17 Feb. 25
Sunrise:07:41 AM (PST) Moon Rise:08:29 PM (PST)1/29
Sunset:05:10 PM (PST) Moon Set:08:26 AM (PST)1/29

Copyright © 2014 The Weather Underground, Inc.